Theta_e
346 345 344 343 343 350 347 347 345 344 343 344 342 343 345 345 346 345 345 344 339 339 340 341 341 339 333 332 340 336 337 340 337 331 336 332 332 334 340 339 336 336 337
344 346 345 338 346 346 347 347 346 346 342 342 343 342 344 344 344 344 344 345 342 340 340 341 342 339 330 326 337 338 341 341 337 332 339 330 335 340 341 339 342 342 335
346 346 342 341 342 348 346 347 346 345 345 345 344 345 344 343 345 346 346 343 345 345 345 341 338 335 329 324 334 338 338 342 340 328 339 332 338 340 339 338 342 340 332
342 343 343 343 343 343 347 346 346 345 344 344 345 344 345 346 346 347 348 347 347 347 349 348 339 332 329 325 338 341 340 342 331 327 331 334 340 339 339 336 339 335 332
345 346 342 345 345 347 347 346 346 345 346 346 347 345 346 346 347 346 347 348 347 348 348 353 346 335 329 327 327 331 329 328 327 330 332 338 340 338 336 336 338 335 331
346 346 343 343 347 348 348 347 347 340 347 347 346 347 347 349 348 347 346 346 347 348 345 350 346 337 332 331 330 330 330 330 331 332 337 342 339 339 337 336 335 333 331
348 347 348 348 344 344 347 350 351 347 345 349 347 348 347 348 349 348 348 348 348 349 348 346 348 347 347 344 332 331 332 333 333 338 341 338 335 335 334 334 334 333 331
349 348 348 350 348 346 348 347 349 344 343 347 348 350 349 346 349 347 347 348 349 349 349 348 348 349 350 349 345 336 334 335 335 335 337 335 334 334 334 334 335 335 334
348 350 352 348 349 343 343 348 350 347 343 344 349 347 347 345 346 346 346 345 348 349 349 349 350 351 351 350 349 347 344 344 342 339 337 336 333 331 332 332 332 332 333
352 350 349 349 345 348 349 351 349 349 343 343 342 350 350 350 346 346 348 345 348 349 348 349 350 351 351 351 351 350 351 348 344 344 343 340 337 334 333 334 334 334 334
352 347 351 350 349 349 346 348 350 348 345 342 340 345 350 349 349 349 347 348 348 347 347 348 348 348 349 351 351 352 349 343 342 342 341 342 341 340 339 338 337 337 337
352 349 353 350 347 345 349 349 348 341 344 342 342 343 348 349 348 349 349 347 348 349 348 348 349 350 350 350 350 352 351 345 341 341 346 348 347 348 347 346 344 342 341
350 352 353 352 348 344 345 351 349 350 347 344 343 341 340 338 348 348 350 343 348 346 347 348 348 349 350 350 351 349 343 342 343 345 347 348 347 343 342 343 344 345 344
354 353 352 352 348 345 345 347 348 351 350 350 350 349 348 349 351 348 350 350 349 349 349 350 349 349 349 350 350 351 350 347 345 343 342 342 340 342 344 344 342 343 344
345 348 354 353 352 347 348 351 349 349 349 351 352 351 350 349 348 347 349 347 349 348 346 349 347 347 349 348 349 349 350 350 348 346 342 338 341 344 346 344 344 344 343
343 351 348 353 355 352 350 350 349 345 348 348 348 349 349 351 345 340 337 347 348 346 345 345 346 342 347 347 347 349 349 350 350 348 345 344 345 345 347 347 345 345 346
351 351 350 347 345 352 352 352 351 349 350 348 348 350 348 347 351 342 337 340 347 347 344 342 342 344 345 343 341 349 351 353 350 347 347 346 346 347 347 347 346 345 346
350 352 352 353 353 352 350 352 352 352 349 346 346 347 349 351 345 343 341 340 347 347 350 346 345 346 347 349 349 348 348 346 349 350 350 349 347 345 343 343 345 346 346
342 343 345 347 349 352 352 351 351 352 352 352 351 346 345 346 348 350 344 345 348 351 351 352 350 349 348 348 349 351 351 349 346 347 349 349 345 345 340 340 343 343 344
341 340 341 343 346 347 349 352 353 352 351 351 352 351 348 346 346 347 347 349 349 348 347 349 349 350 349 347 348 346 347 350 351 347 345 347 347 347 347 343 342 340 341
338 340 340 340 341 342 343 350 351 350 352 353 353 351 349 346 343 344 347 347 349 348 348 349 349 348 348 346 347 348 347 344 348 347 347 345 347 348 348 349 345 344 340
337 337 339 340 339 339 340 340 337 344 348 348 342 347 347 350 348 346 344 345 347 348 348 349 347 346 345 345 345 346 348 348 348 347 348 348 346 347 351 350 349 349 344
335 336 335 336 338 339 338 334 333 331 344 348 348 346 351 352 350 350 350 346 348 347 347 346 347 347 347 345 345 347 348 347 347 349 348 348 347 347 348 346 348 347 347
336 334 334 334 334 333 336 333 333 336 330 343 346 343 344 341 342 349 351 351 349 346 344 345 346 345 343 345 348 349 346 348 348 347 345 349 349 348 348 348 348 346 347
334 334 335 334 334 333 331 333 334 337 339 332 340 342 342 342 342 345 347 348 350 349 350 348 345 345 345 346 347 349 349 349 348 346 345 348 348 350 348 348 348 347 347
333 334 333 333 333 333 332 330 330 335 338 339 338 338 342 342 341 340 340 340 337 334 343 350 349 347 346 346 346 346 348 349 348 345 344 348 350 350 349 349 349 348 345
Wind_Speed
3 5 10 6 1 5 5 4 9 5 6 4 5 6 5 8 4 7 8 6 8 8 9 9 9 10 11 11 11 9 9 7 8 8 6 7 6 5 5 5 5 5 6
6 10 10 9 3 3 6 4 4 6 4 6 7 8 8 8 8 9 7 10 10 11 10 12 12 11 11 12 12 9 9 8 11 10 8 8 6 6 5 5 6 6 6
11 14 10 8 8 6 5 6 6 5 6 9 7 6 8 8 8 10 11 9 14 12 11 11 11 11 10 10 12 11 11 12 12 11 10 9 7 6 6 6 7 6 5
11 9 7 6 10 11 7 5 5 6 7 7 8 6 7 8 10 9 9 10 10 14 11 11 9 11 11 10 13 11 13 14 13 12 10 9 7 7 7 7 6 5 5
10 13 8 3 2 5 8 7 8 12 6 6 8 8 8 9 9 10 11 11 10 10 11 13 10 11 10 11 12 13 12 13 12 11 10 9 8 7 7 6 6 6 5
11 13 8 5 2 5 10 6 10 8 7 6 10 12 11 11 10 10 11 12 11 11 10 11 12 8 4 7 10 11 11 12 12 11 9 8 9 8 7 7 7 6 5
13 12 7 8 5 6 7 7 7 7 8 8 12 11 15 14 12 11 10 11 13 12 11 12 11 8 12 8 9 10 10 10 10 10 9 9 9 8 7 7 6 6 5
13 13 11 9 8 8 8 8 7 7 8 9 9 13 13 10 17 9 12 14 14 13 12 13 12 11 10 11 8 8 9 9 9 9 10 9 8 7 7 7 7 6 6
12 14 13 12 12 12 10 7 7 10 9 11 4 7 7 8 15 5 10 16 16 14 12 12 13 13 13 11 13 14 10 8 8 8 9 9 8 7 7 6 6 5 6
10 11 11 14 12 10 12 7 9 9 10 10 9 11 15 9 7 1 8 11 15 14 13 12 13 14 13 12 12 13 14 11 10 9 9 9 8 7 6 6 6 5 6
11 12 12 15 15 12 11 14 12 11 11 9 16 17 13 7 11 10 10 11 12 11 11 11 11 11 12 12 10 13 12 11 11 11 10 9 8 8 8 7 7 7 7
10 8 11 14 16 16 15 13 15 14 15 14 15 15 11 7 14 10 11 6 7 11 8 9 9 9 9 10 10 14 16 12 11 11 10 9 9 9 9 9 10 10 10
10 9 14 15 13 16 14 15 16 13 14 16 13 12 11 13 9 8 8 7 6 6 8 8 8 9 8 7 8 9 9 9 9 11 12 12 11 10 9 10 11 13 13
9 16 11 12 15 16 15 18 18 12 15 14 14 14 11 12 12 9 8 11 6 5 6 9 11 9 9 8 9 12 12 12 10 10 10 12 12 11 10 11 11 13 14
18 16 15 15 17 15 15 17 16 17 15 16 15 18 17 16 15 12 9 9 9 6 11 10 9 11 9 9 11 9 10 15 15 15 13 13 14 14 14 13 13 13 13
16 17 17 16 17 17 16 18 19 17 19 19 17 21 20 18 20 20 17 13 12 10 13 11 7 5 8 4 5 7 9 15 19 20 18 17 17 18 18 18 18 17 16
12 13 15 17 20 19 19 20 21 21 21 23 23 21 26 23 20 22 21 16 15 15 15 14 10 7 12 17 18 11 9 11 13 15 15 17 19 20 21 22 22 21 20
11 13 15 17 18 18 19 21 24 22 25 28 29 26 28 24 28 27 26 25 21 20 17 19 18 15 9 10 12 14 15 15 15 11 14 14 15 19 21 23 23 23 23
11 12 13 17 18 19 21 24 26 28 28 26 27 27 29 30 32 27 30 27 25 27 22 21 20 18 17 17 15 12 15 17 17 16 19 22 23 21 23 24 23 23 23
14 14 13 14 15 18 20 21 25 27 30 29 27 28 28 30 31 34 32 31 29 28 28 29 27 23 22 21 20 18 19 19 18 14 19 23 22 24 22 23 24 23 22
17 16 16 17 16 16 17 22 24 26 28 27 26 28 31 32 31 33 35 36 33 31 30 26 25 26 27 24 23 20 20 18 20 23 18 19 22 24 23 18 15 18 22
21 20 19 18 20 18 20 26 26 28 33 39 33 33 31 33 32 31 34 37 37 37 36 32 30 29 28 25 25 26 16 16 20 19 23 22 19 18 21 20 17 20 16
23 23 23 22 22 23 24 27 27 24 25 31 32 32 24 25 28 33 34 38 41 41 38 38 37 31 26 27 28 26 25 23 21 20 18 19 18 20 19 22 22 23 24
25 25 24 24 25 26 24 28 29 29 25 26 31 33 31 29 33 29 30 32 34 39 46 44 44 43 42 34 25 28 30 28 25 24 21 23 19 19 18 19 20 25 22
29 29 27 27 27 29 28 28 30 30 25 26 28 32 35 34 31 26 27 29 29 34 32 39 46 43 43 38 32 31 30 24 24 23 20 24 23 20 19 22 20 24 27
33 31 30 29 28 30 30 29 31 28 27 26 26 26 27 25 27 33 35 34 35 36 36 34 37 35 39 40 38 36 31 28 26 24 20 23 20 21 16 14 20 23 22
Wind_Direction
247 294 266 239 273 232 183 218 223 192 232 222 238 246 233 247 243 227 246 259 248 242 261 264 268 261 260 254 243 249 250 255 267 268 251 252 252 263 278 285 287 288 275
239 231 253 251 233 276 216 247 210 216 200 220 230 237 239 225 234 223 226 276 281 274 273 274 271 261 255 252 243 244 245 254 261 259 246 254 247 261 277 278 268 296 288
236 240 252 249 224 254 254 221 237 230 226 224 248 238 238 232 225 233 232 239 270 281 291 286 278 260 253 251 241 242 243 255 252 251 249 250 253 264 268 269 260 283 288
242 248 244 264 266 229 248 217 224 221 216 226 214 230 232 229 230 239 242 240 246 266 276 292 279 267 253 246 242 243 234 243 251 247 244 244 255 264 267 264 261 261 281
232 255 232 234 288 193 210 207 196 219 231 253 253 208 229 244 236 249 249 248 246 249 270 258 291 279 256 248 242 242 243 248 247 242 241 243 254 263 264 263 256 259 269
229 244 244 246 181 191 189 208 230 221 215 234 246 240 229 238 237 232 236 241 240 239 234 265 278 285 266 272 249 242 241 241 239 238 236 250 257 251 253 255 253 255 262
224 226 229 258 234 198 200 198 224 244 221 234 254 247 232 225 214 219 233 233 234 227 233 226 236 248 270 291 266 246 241 244 243 239 243 250 256 250 248 251 253 256 258
226 225 222 233 239 232 228 231 227 231 220 243 252 273 258 261 219 216 224 227 223 221 226 226 229 225 227 275 284 248 240 242 244 241 244 249 252 250 251 250 249 254 264
243 219 227 225 231 239 236 243 233 232 248 257 319 278 318 42 312 201 232 221 212 215 217 223 226 227 233 222 243 258 241 243 242 243 247 252 249 250 252 253 253 257 265
251 258 221 228 235 224 224 223 248 234 248 268 276 256 266 264 280 263 237 208 198 202 212 220 230 232 229 227 232 230 249 258 248 247 250 253 255 252 253 255 258 257 259
253 238 236 222 225 235 249 220 214 231 239 256 249 253 251 240 271 276 315 223 216 204 204 209 220 228 226 224 229 247 260 248 245 243 241 242 247 250 255 256 258 262 263
257 278 236 235 228 226 214 238 244 223 235 230 246 267 276 279 266 273 293 309 175 189 194 193 200 208 213 225 226 231 252 254 240 235 237 241 244 253 260 265 263 263 265
250 252 257 247 236 243 240 228 233 223 227 222 239 259 258 260 272 283 322 248 249 173 181 180 178 184 199 206 229 248 238 239 243 240 242 245 251 254 261 270 270 267 265
279 278 257 266 259 251 251 241 228 223 231 232 225 236 250 245 249 243 268 295 307 289 191 194 189 199 203 221 226 248 250 255 252 253 251 245 240 248 263 272 277 272 270
268 264 260 254 266 256 245 239 236 217 227 233 235 236 228 240 238 241 237 257 272 291 299 226 194 199 192 231 229 236 257 258 260 254 250 245 245 256 264 268 271 276 276
272 266 250 248 254 258 247 241 239 234 224 227 237 246 240 241 247 243 249 246 254 272 251 218 256 233 201 194 277 261 269 254 258 255 248 254 259 260 264 270 272 276 274
285 282 277 270 260 256 250 249 240 228 242 238 227 239 250 242 244 249 247 238 250 255 256 263 261 276 255 259 252 263 268 257 261 258 256 261 264 263 264 270 276 275 272
295 294 288 276 268 263 260 253 247 241 234 238 242 233 238 239 243 243 242 240 233 232 257 254 247 256 261 263 281 259 253 252 270 282 258 249 265 265 270 271 272 273 275
296 296 292 296 291 276 262 253 250 241 236 235 242 245 239 239 237 237 243 237 240 229 236 243 247 247 250 248 252 255 261 263 260 263 271 278 278 275 273 268 269 269 273
287 292 291 287 285 290 282 263 252 248 240 238 238 243 250 244 242 245 238 241 236 238 243 238 238 240 245 244 243 247 256 263 250 247 260 262 266 272 284 279 268 268 270
281 280 284 285 285 283 282 278 268 254 243 243 243 244 243 250 247 245 246 244 238 235 235 239 241 240 242 245 242 241 240 254 256 257 247 259 271 274 277 276 277 277 274
282 279 279 276 276 278 272 270 274 270 259 254 254 255 253 251 250 251 248 245 242 238 232 233 242 240 239 237 246 248 247 250 254 255 261 253 252 262 268 270 274 276 283
281 278 275 274 272 268 272 274 279 282 271 264 256 259 258 256 255 255 256 248 245 243 244 241 234 236 243 241 238 242 243 243 250 253 268 267 259 265 270 263 268 274 277
277 277 280 278 275 275 270 277 280 285 279 263 254 265 271 265 262 250 250 252 252 250 243 243 243 245 240 237 240 238 239 247 248 250 246 261 257 265 270 264 263 274 274
275 274 278 279 277 277 276 268 273 278 276 270 262 267 269 263 258 252 250 253 254 255 256 253 248 250 251 246 246 245 242 239 247 249 252 253 250 259 263 261 258 272 280
275 277 277 277 279 282 282 277 268 268 269 269 271 276 277 270 264 256 252 262 264 262 256 255 251 250 247 250 249 243 242 232 241 247 242 246 242 245 252 251 267 269 279